Temperature
14 14 15 15 14 13 13 15 17 18 19 20 20 20 18 18 18 18 18 18 18 17 17 16 16 16 16 16 16 16 16 16 16 16 16 17 17 16 16 17 17 17 17 17 18 18 17 17 17
13 14 14 14 12 12 13 15 17 18 19 20 20 19 18 18 17 17 16 17 18 18 17 16 16 16 16 16 16 16 16 16 16 16 17 17 17 17 17 17 17 18 18 18 18 18 18 17 17
13 13 14 12 12 13 14 16 18 19 19 19 19 19 18 18 17 17 17 17 18 17 17 16 16 16 16 16 16 16 16 16 16 17 17 17 17 17 17 18 18 18 18 18 18 18 18 17 17
12 13 13 11 12 14 15 18 19 19 19 19 18 17 18 17 17 17 17 17 18 17 17 16 16 16 16 16 16 16 16 16 17 17 17 17 17 18 18 18 18 18 18 18 18 18 18 17 17
12 13 11 11 12 14 15 18 19 18 18 18 18 17 17 17 18 18 17 17 18 17 16 16 16 16 16 16 17 17 16 17 17 17 17 18 18 18 18 18 18 18 18 18 18 18 17 17 17
12 11 11 11 12 15 16 18 19 18 18 18 17 16 16 17 17 17 17 17 17 17 16 16 16 16 16 16 17 17 16 17 17 17 17 18 18 18 18 18 18 18 18 18 18 18 17 17 17
11 10 11 12 13 14 16 18 19 18 18 18 18 16 16 17 17 17 17 17 17 16 16 16 15 16 16 16 17 17 16 17 17 17 18 18 18 18 18 18 18 18 18 18 18 18 17 17 17
11 10 11 12 13 14 17 18 19 19 18 18 18 17 15 17 17 17 17 17 16 16 16 15 15 15 16 16 16 17 17 17 17 17 17 18 18 18 18 18 18 18 18 18 17 17 17 17 17
10 10 11 12 13 15 16 17 18 18 18 17 18 18 18 17 17 17 16 16 16 16 16 15 15 15 16 16 16 17 17 17 17 17 17 18 18 18 18 18 18 18 18 17 17 17 17 17 16
10 10 11 13 14 14 16 16 17 17 16 16 17 18 18 17 17 17 16 16 16 16 16 15 15 15 15 16 16 16 17 17 17 17 17 18 18 18 18 18 17 17 17 17 17 17 17 16 16
10 10 12 13 14 15 15 15 16 16 15 16 17 17 17 17 17 17 17 16 16 16 16 15 15 15 15 15 16 16 16 17 17 17 17 17 17 17 17 17 17 17 17 17 16 16 16 16 15
10 11 12 13 13 14 14 15 15 15 16 17 18 18 17 17 17 17 17 16 16 16 16 16 16 15 15 15 16 16 16 16 16 16 17 17 17 17 17 17 17 17 16 16 16 16 16 15 15
9 11 12 12 13 13 14 13 14 15 16 17 17 17 17 17 17 17 17 17 16 16 16 16 16 15 15 15 15 15 16 16 16 16 16 16 16 16 16 16 16 16 16 16 16 15 15 15 14
10 10 11 11 12 12 12 12 13 14 15 16 16 17 17 17 17 17 17 17 16 16 16 16 15 16 15 15 15 15 15 15 15 15 15 15 15 16 16 16 16 16 15 15 15 15 14 14 14
10 10 10 10 11 11 12 12 12 13 14 15 16 16 16 16 16 16 17 17 17 16 16 16 15 15 15 15 15 15 15 15 15 15 15 15 15 15 15 15 15 15 15 14 14 14 14 14 14
9 9 10 10 10 10 11 11 12 13 13 14 15 15 16 16 16 16 16 16 16 16 16 16 16 16 15 15 15 15 15 15 15 14 14 14 14 14 14 15 14 14 14 14 14 14 14 13 13
8 8 9 10 10 10 11 11 11 12 13 13 14 15 15 16 16 16 16 16 16 16 16 16 16 16 15 15 15 15 15 15 14 14 14 14 14 14 14 14 14 14 14 14 13 13 13 13 13
8 8 9 9 10 10 10 10 11 12 12 13 13 14 15 16 16 16 16 16 16 16 16 16 16 16 15 15 15 15 14 14 14 14 14 14 14 14 14 14 14 14 14 13 13 13 13 13 13
9 9 9 9 10 10 10 10 11 11 11 12 13 14 15 16 16 16 16 16 16 16 16 16 16 16 15 15 15 15 15 14 14 14 14 14 14 14 14 14 14 14 14 14 13 13 13 13 13
8 9 9 9 10 10 10 10 11 11 11 12 13 13 15 15 16 16 16 16 16 16 16 16 16 16 15 15 15 15 15 14 14 14 14 14 14 14 14 14 14 14 14 14 14 13 13 13 12
8 9 9 9 10 10 10 10 10 11 12 12 13 14 15 15 16 16 16 16 16 16 16 16 16 16 15 15 15 14 14 14 14 14 14 14 14 14 14 14 14 14 14 14 14 13 13 13 12
8 9 10 10 9 9 10 9 10 11 11 11 12 13 14 15 16 16 16 16 16 16 16 16 16 16 15 15 15 15 14 14 14 14 14 14 14 14 14 14 14 14 14 14 14 13 13 12 12
9 9 10 10 9 9 9 9 10 10 11 11 12 13 15 15 16 16 16 16 16 16 16 16 16 15 15 15 15 15 15 14 14 14 14 14 14 14 14 14 14 14 14 14 13 13 12 12 12
9 9 9 9 9 9 9 9 10 10 11 11 12 13 15 15 15 16 16 16 16 16 16 16 15 15 15 15 15 15 15 14 14 14 14 14 14 14 14 14 14 13 13 13 13 12 12 12 11
9 8 8 8 8 9 10 10 10 11 12 12 12 13 14 15 15 15 15 15 15 15 15 15 15 15 15 15 14 14 14 14 14 14 14 14 14 14 14 13 13 13 13 12 12 12 11 11 10
9 9 8 8 8 8 10 10 11 12 12 12 13 13 14 14 14 15 15 15 15 15 15 15 15 15 14 14 14 14 14 14 14 13 13 13 13 13 13 13 13 12 12 12 11 11 11 10 9
9 8 9 8 8 8 9 10 11 12 11 11 12 13 13 14 14 14 14 14 14 14 14 14 14 14 14 14 14 13 13 13 13 13 13 13 13 12 12 12 12 12 11 11 11 10 10 9 9
9 9 7 7 8 8 10 10 10 11 11 10 10 11 12 13 13 13 13 14 14 14 13 13 13 13 13 13 13 13 13 13 12 12 12 12 12 12 12 11 11 11 10 10 10 9 8 8 7
9 9 8 7 7 8 8 9 10 9 9 10 10 11 12 12 13 13 13 13 13 13 13 12 12 12 12 12 12 12 12 12 12 11 11 11 11 11 11 11 10 10 9 9 8 8 7 7 6
9 9 8 7 7 6 7 8 9 9 9 10 10 11 12 12 12 12 12 12 12 12 12 12 11 11 11 11 11 11 11 11 11 11 11 10 10 10 10 10 9 9 8 8 7 6 6 5 5
Wind_Speed
9 6 1 3 3 2 7 7 5 3 1 1 1 2 6 4 2 2 4 13 17 17 21 23 22 21 20 19 18 17 16 17 17 17 18 18 18 19 20 20 20 20 19 18 17 16 16 15 14
5 2 2 3 5 6 8 8 8 8 5 0 2 2 5 4 4 4 7 15 19 19 20 21 23 22 21 19 18 17 17 18 18 18 17 17 18 19 19 19 19 18 18 17 16 15 14 13 12
3 1 2 4 6 9 8 8 10 6 5 1 1 3 4 3 3 3 9 18 16 15 19 22 23 22 21 19 18 17 18 18 18 18 17 17 17 18 18 18 18 17 16 15 14 13 12 11 11
1 1 2 4 9 9 7 5 6 6 4 3 3 2 2 3 2 6 16 16 16 11 18 22 23 22 20 19 18 18 18 18 18 18 17 17 17 17 17 16 16 15 15 14 13 12 11 9 9
2 3 5 6 10 7 7 5 6 8 9 7 6 4 2 4 5 15 16 16 15 11 17 21 23 22 20 19 18 18 19 19 19 18 17 16 16 16 16 15 14 14 13 13 12 11 9 8 7
3 4 6 10 11 8 7 6 5 7 7 7 7 7 3 2 6 10 15 15 13 13 15 20 22 21 20 18 17 18 19 19 18 18 17 16 15 15 14 13 13 12 11 11 10 9 7 6 6
5 6 7 10 10 8 8 6 7 8 6 7 7 9 6 2 4 7 14 15 13 13 13 15 18 19 19 18 17 17 18 18 18 18 17 16 15 14 13 12 11 10 10 9 8 7 5 4 4
5 6 8 8 9 8 6 4 4 8 7 5 6 11 9 8 7 8 13 14 13 11 10 11 14 16 16 16 17 17 17 17 18 18 18 16 15 13 12 11 10 9 8 7 6 4 3 2 2
4 6 10 11 10 8 4 4 1 3 7 3 3 5 10 15 13 13 12 12 12 13 10 10 11 13 14 15 15 16 17 17 17 17 17 15 13 12 11 11 10 9 8 6 5 3 1 0 3
7 9 11 7 6 6 4 4 4 4 5 3 5 6 11 15 16 17 15 14 14 14 11 10 10 12 13 12 13 14 14 15 15 15 15 13 12 12 10 11 10 9 7 6 4 3 2 3 4
7 9 7 4 4 3 4 2 2 8 5 6 11 14 13 14 16 16 15 13 12 13 12 11 10 13 12 10 12 11 12 13 13 14 14 12 11 10 9 9 8 7 7 5 4 4 4 5 6
5 6 6 4 2 1 3 2 2 3 4 6 12 16 14 14 14 16 16 13 11 11 11 12 11 11 12 12 10 10 10 10 10 12 13 12 9 8 9 8 9 8 7 6 6 6 6 7 8
7 4 5 3 2 1 2 3 2 1 2 5 10 12 12 13 11 11 13 13 12 11 11 11 12 12 11 11 9 9 9 10 12 12 13 13 10 7 8 8 9 9 9 8 7 6 6 7 7
5 4 3 2 2 0 2 1 3 0 3 4 8 10 10 11 11 10 13 14 13 13 13 11 12 12 12 9 7 8 10 11 11 12 13 15 13 10 7 6 7 8 10 10 9 7 5 4 4
3 3 3 2 3 1 3 0 2 1 3 3 3 6 7 8 9 11 12 13 14 13 13 13 13 11 11 10 9 10 11 11 10 11 13 14 13 11 8 5 5 7 8 8 7 5 3 2 2
4 5 5 3 3 2 5 6 3 1 2 2 1 2 5 6 8 9 10 11 11 12 12 13 12 12 11 8 8 8 10 10 10 11 12 12 12 11 8 4 4 6 5 5 3 2 2 2 2
5 7 6 3 5 4 4 5 3 2 0 1 2 3 5 5 6 7 9 11 11 12 12 12 11 11 10 8 7 7 8 8 9 10 10 10 11 11 8 5 5 5 3 2 2 2 2 3 3
8 7 7 5 5 6 4 3 3 3 3 4 4 5 5 7 8 8 8 9 10 11 10 11 10 10 9 7 5 5 5 4 7 8 9 10 10 10 8 6 5 4 2 2 2 3 3 3 3
7 7 6 4 4 5 6 4 5 5 4 6 7 7 7 8 7 6 7 8 8 9 10 11 11 10 9 6 6 5 5 4 4 5 9 9 9 8 7 4 3 3 2 3 3 2 3 3 2
7 9 6 5 5 4 4 5 6 6 7 8 9 10 9 7 5 7 7 7 8 9 10 10 10 10 9 7 6 4 4 3 3 3 5 7 7 7 6 4 2 2 2 2 2 1 1 2 2
6 6 7 7 5 3 5 3 7 7 7 9 10 10 9 10 10 9 8 8 8 9 10 10 10 9 9 8 5 4 4 3 3 3 3 4 7 7 6 5 3 2 2 2 2 2 2 3 2
4 5 7 10 8 3 5 2 6 8 9 11 13 11 10 9 9 9 9 8 8 7 6 7 8 8 7 8 8 8 6 5 5 4 4 3 5 6 6 5 4 2 1 1 1 1 2 2 3
4 6 7 8 6 4 3 2 5 5 9 13 14 12 10 10 9 10 10 10 7 6 6 5 6 5 5 6 8 8 6 4 4 4 6 4 3 5 5 5 4 2 1 1 0 0 1 2 3
6 8 7 5 3 2 4 4 5 4 9 9 10 10 9 8 8 8 7 6 5 5 5 5 6 4 4 5 6 8 9 8 7 6 6 4 3 2 4 5 4 3 2 1 0 1 1 2 2
7 7 4 3 2 3 3 4 6 6 5 8 8 6 5 5 5 6 7 7 7 6 5 5 6 4 3 4 4 6 7 9 8 7 6 5 3 2 2 2 2 1 1 0 0 1 1 1 2
4 4 5 5 5 1 2 5 5 4 1 2 4 4 3 3 4 5 6 7 6 5 5 5 5 5 5 5 5 4 6 5 5 5 5 5 4 3 3 3 2 1 0 0 0 1 1 1 1
4 2 3 5 4 3 2 3 4 4 4 5 5 5 4 3 3 4 4 4 5 5 5 5 5 5 5 6 6 5 6 6 6 6 5 4 4 3 4 3 2 1 1 0 0 0 1 0 0
3 4 5 5 5 3 1 2 3 3 1 3 5 5 4 4 3 3 2 2 2 3 3 4 4 5 5 6 6 5 5 6 6 6 6 5 4 4 4 3 2 1 0 1 1 0 1 1 1
3 3 4 4 3 5 3 4 4 6 4 5 4 3 4 4 3 1 1 1 2 2 3 4 4 5 5 5 6 6 5 5 6 5 5 5 4 4 3 3 3 2 1 1 1 1 1 2 2
1 1 3 4 1 3 4 3 6 1 3 5 5 4 4 4 3 2 2 1 1 3 3 4 5 5 5 5 6 6 6 6 6 6 5 5 5 4 3 3 3 2 2 1 1 2 2 2 2
Wind_Direction
295 323 49 63 88 138 217 225 211 224 220 168 351 87 101 101 144 173 108 135 135 145 150 148 146 142 137 132 130 130 127 122 116 112 109 107 107 107 104 103 101 99 98 95 93 92 91 90 88
298 340 66 93 152 191 225 221 219 212 202 131 21 63 76 76 71 89 120 140 140 146 148 148 145 141 138 135 134 133 130 125 120 116 113 112 110 109 107 106 104 102 100 97 95 92 90 87 82
275 199 158 143 180 200 213 207 215 206 180 171 25 28 74 51 38 90 138 141 137 142 145 148 145 142 140 138 138 137 134 129 124 122 118 117 114 113 111 109 107 105 104 101 97 94 89 83 75
220 144 154 178 211 216 212 193 182 169 169 177 153 61 55 15 331 130 136 139 136 136 143 147 145 143 141 140 141 140 137 133 129 127 123 121 119 116 115 113 112 110 108 106 102 98 92 83 73
146 159 192 213 222 229 229 233 182 171 177 182 166 135 73 353 63 124 136 139 138 136 143 148 146 144 143 143 144 143 141 138 134 132 128 126 124 123 121 120 118 116 114 111 108 104 97 85 71
180 174 192 207 219 229 235 228 189 177 179 181 163 147 141 29 94 130 139 139 140 141 144 149 147 145 145 145 145 145 144 143 140 136 133 132 131 130 129 128 126 123 120 117 114 110 103 88 69
185 182 202 205 210 222 223 217 190 175 164 175 162 144 145 148 119 133 140 139 139 141 143 145 146 145 144 144 145 146 146 145 143 140 138 138 138 137 136 135 133 130 126 123 121 117 109 91 61
191 180 204 204 199 215 213 190 196 166 158 146 146 150 161 168 138 124 138 139 141 141 142 141 143 143 141 142 144 145 146 146 144 143 143 144 144 143 142 142 142 141 139 138 138 136 124 89 29
176 199 206 199 193 206 203 171 149 113 120 111 132 154 152 140 130 129 137 141 146 149 148 146 144 143 143 143 144 144 145 148 147 148 149 148 148 149 152 155 156 156 157 159 164 170 174 326 330
190 208 211 199 189 192 196 169 154 114 110 111 101 102 134 141 143 146 152 156 156 158 160 157 152 150 149 149 147 145 147 152 154 156 155 155 159 162 167 171 172 173 176 184 199 219 250 279 295
194 208 213 220 210 196 178 168 134 132 148 171 157 152 155 153 151 153 158 159 163 163 164 165 160 160 158 151 156 156 157 162 167 168 167 167 173 179 179 179 187 191 197 212 235 255 261 267 272
208 217 206 219 214 190 165 138 76 144 182 184 162 158 161 162 162 162 161 163 163 167 172 172 168 166 164 161 167 168 166 173 181 184 179 174 173 178 184 192 198 202 210 223 239 251 262 269 264
225 211 200 210 166 190 123 108 94 97 88 126 148 155 168 170 165 166 159 161 164 171 174 177 175 172 168 166 172 175 178 182 191 196 189 180 174 179 187 198 204 211 216 224 235 244 255 263 261
210 198 207 187 160 109 155 70 70 199 63 106 151 169 175 175 166 163 163 165 172 176 174 177 180 176 171 170 173 177 183 184 186 187 187 183 179 179 183 192 202 211 216 221 225 230 237 247 250
182 175 205 205 168 153 135 94 219 257 63 101 149 181 180 181 175 174 173 170 175 176 172 176 179 178 175 174 174 176 179 179 180 184 184 183 184 182 180 182 195 211 215 216 221 232 229 240 254
155 178 196 189 153 114 148 193 237 349 74 112 167 212 193 191 187 182 177 173 173 173 173 175 177 177 179 176 173 174 176 175 179 183 182 184 187 187 179 179 199 213 211 206 207 216 233 257 266
163 187 193 166 148 119 152 187 224 283 296 243 252 237 217 209 207 197 182 179 177 178 178 178 176 176 179 177 174 172 172 172 176 178 179 183 184 185 181 186 204 209 204 210 215 219 214 245 263
165 167 178 175 150 138 161 189 229 246 240 242 252 248 226 213 216 205 189 181 179 178 180 180 178 177 175 174 167 160 162 166 171 174 182 186 187 187 183 187 198 196 188 216 230 239 235 234 251
135 143 151 156 151 152 170 192 231 240 244 253 253 249 237 228 230 213 195 183 174 176 180 183 181 178 171 170 170 169 176 173 172 179 186 186 186 185 180 182 191 185 193 219 228 232 247 252 240
135 139 138 128 151 151 172 222 243 238 230 235 239 240 236 232 227 215 202 187 182 181 184 186 185 180 180 180 173 166 160 163 167 161 159 166 165 164 163 162 161 161 191 219 229 218 241 251 208
136 149 148 136 138 115 136 237 246 245 239 244 241 237 230 217 209 206 202 198 186 185 185 186 189 184 183 174 156 134 123 118 142 158 151 150 149 147 147 149 150 158 181 210 226 211 213 245 252
147 160 148 143 139 153 162 199 245 226 237 242 244 238 227 220 210 203 201 200 198 194 184 180 180 179 177 170 168 165 171 180 186 170 155 138 131 129 130 131 133 131 144 189 236 213 216 221 248
155 150 145 142 133 114 152 164 269 210 227 236 237 236 231 221 208 204 203 200 192 175 166 164 158 163 169 176 178 174 173 169 145 135 138 134 117 117 120 120 112 106 107 104 40 314 252 223 231
124 112 95 82 86 127 190 174 266 223 217 226 228 230 230 223 213 210 200 179 166 154 149 149 149 153 157 169 177 174 167 156 149 149 151 145 127 101 103 109 108 106 101 87 351 296 282 263 250
119 122 109 91 101 223 200 184 253 256 228 209 206 211 220 208 192 190 179 174 172 169 162 155 151 149 143 146 156 164 161 158 161 161 160 155 153 148 139 118 120 115 113 163 276 263 273 269 255
129 131 145 150 168 222 161 212 261 302 335 120 136 139 134 145 160 168 176 176 173 170 162 159 158 151 143 137 133 132 140 145 147 149 151 156 159 155 154 148 142 138 153 192 332 273 272 265 259
118 126 157 118 112 109 229 273 332 20 46 66 75 81 90 105 120 141 156 166 173 176 179 174 166 159 151 143 134 130 131 135 137 136 131 136 139 146 149 147 148 152 161 160 134 186 289 271 213
122 134 87 98 128 141 228 273 252 255 198 84 81 84 78 81 81 94 123 156 171 182 183 170 169 171 159 151 146 138 135 132 130 129 132 137 141 141 144 143 148 149 133 113 118 172 207 149 133
35 67 87 94 122 139 157 271 267 227 201 147 117 100 90 80 81 78 113 162 166 170 178 180 175 166 161 157 144 138 135 128 125 129 138 143 142 143 148 152 153 145 112 76 151 167 148 147 123
77 97 116 124 117 120 131 281 323 65 107 109 92 60 48 51 44 31 15 1 211 206 202 196 186 179 174 161 150 146 141 139 139 143 146 143 139 140 146 143 138 126 105 76 154 153 138 145 138
Height
1521 1522 1524 1526 1529 1534 1533 1523 1516 1515 1516 1515 1515 1514 1514 1517 1521 1525 1521 1521 1526 1530 1534 1538 1541 1543 1545 1546 1547 1548 1550 1551 1552 1553 1553 1553 1554 1555 1556 1557 1559 1560 1560 1561 1562 1562 1562 1562 1562
1519 1521 1524 1523 1529 1537 1529 1516 1512 1512 1513 1514 1516 1515 1515 1517 1519 1520 1520 1524 1528 1531 1535 1538 1541 1543 1545 1546 1548 1549 1551 1552 1553 1554 1554 1555 1556 1557 1558 1559 1560 1561 1562 1563 1564 1564 1564 1565 1565
1516 1518 1521 1521 1526 1526 1519 1509 1508 1507 1511 1513 1516 1516 1516 1518 1519 1520 1522 1525 1529 1532 1536 1539 1542 1544 1545 1547 1548 1550 1552 1553 1554 1555 1556 1557 1558 1559 1560 1561 1562 1563 1564 1565 1566 1566 1566 1567 1567
1514 1517 1518 1521 1520 1513 1508 1503 1503 1507 1511 1513 1515 1517 1517 1519 1519 1521 1524 1527 1530 1533 1536 1540 1542 1544 1546 1547 1549 1551 1552 1554 1555 1557 1558 1559 1560 1561 1562 1563 1564 1565 1566 1567 1567 1568 1568 1569 1569
1512 1513 1516 1517 1513 1506 1502 1500 1501 1504 1508 1512 1514 1516 1518 1519 1520 1522 1525 1528 1531 1534 1537 1540 1543 1545 1546 1548 1550 1552 1553 1555 1556 1558 1559 1560 1561 1563 1564 1565 1566 1567 1568 1569 1569 1570 1570 1570 1571
1509 1509 1513 1513 1509 1503 1500 1499 1500 1502 1505 1509 1511 1514 1517 1520 1522 1524 1527 1530 1533 1535 1538 1541 1543 1545 1547 1548 1550 1552 1554 1556 1557 1559 1560 1562 1563 1564 1565 1566 1568 1568 1569 1570 1571 1571 1571 1572 1572
1505 1506 1506 1506 1505 1503 1498 1497 1498 1500 1503 1507 1508 1512 1515 1519 1523 1525 1528 1531 1534 1537 1539 1542 1544 1546 1547 1549 1551 1553 1555 1557 1558 1560 1561 1563 1564 1566 1567 1568 1569 1570 1571 1571 1572 1572 1572 1572 1573
1499 1502 1502 1503 1502 1500 1495 1495 1495 1497 1501 1504 1506 1508 1512 1517 1522 1526 1529 1532 1535 1538 1540 1542 1544 1546 1548 1549 1551 1553 1555 1557 1559 1561 1562 1564 1565 1567 1568 1569 1570 1570 1571 1572 1572 1573 1573 1573 1573
1497 1501 1498 1498 1497 1495 1492 1493 1495 1496 1498 1501 1503 1504 1507 1513 1520 1525 1529 1532 1535 1538 1540 1543 1544 1546 1548 1550 1551 1553 1555 1558 1559 1561 1562 1564 1566 1567 1568 1569 1570 1571 1571 1572 1572 1573 1573 1573 1573
1493 1494 1491 1490 1490 1491 1491 1492 1493 1495 1497 1499 1501 1503 1507 1512 1517 1522 1527 1530 1533 1536 1540 1543 1545 1546 1548 1550 1551 1553 1555 1557 1559 1561 1562 1564 1565 1567 1568 1569 1570 1570 1571 1572 1572 1572 1573 1573 1573
1488 1488 1487 1487 1487 1488 1489 1491 1492 1493 1496 1496 1498 1501 1506 1510 1514 1519 1524 1528 1532 1535 1539 1542 1544 1546 1548 1550 1551 1553 1555 1557 1559 1560 1561 1563 1565 1566 1567 1568 1569 1570 1570 1571 1571 1572 1572 1572 1572
1486 1485 1486 1486 1487 1488 1489 1490 1492 1492 1494 1495 1497 1500 1503 1507 1511 1515 1520 1526 1531 1534 1538 1541 1543 1545 1548 1549 1551 1553 1554 1556 1558 1559 1560 1562 1563 1565 1566 1567 1568 1569 1570 1570 1570 1571 1571 1571 1571
1485 1484 1485 1486 1487 1488 1489 1491 1491 1492 1493 1495 1498 1500 1503 1505 1509 1514 1518 1523 1528 1532 1536 1539 1542 1544 1546 1548 1550 1552 1554 1555 1557 1558 1560 1561 1562 1563 1565 1566 1567 1568 1568 1569 1569 1569 1569 1569 1569
1482 1484 1485 1486 1487 1489 1491 1491 1492 1494 1494 1496 1498 1500 1502 1505 1508 1512 1515 1521 1525 1529 1533 1537 1539 1542 1544 1546 1549 1551 1553 1554 1556 1557 1558 1560 1561 1562 1564 1565 1565 1566 1567 1567 1568 1568 1568 1567 1567
1482 1485 1486 1486 1488 1489 1491 1495 1494 1495 1495 1497 1499 1501 1503 1505 1508 1510 1513 1517 1522 1526 1530 1534 1537 1540 1542 1545 1547 1549 1551 1553 1554 1556 1557 1559 1560 1561 1562 1563 1564 1564 1565 1565 1566 1566 1566 1566 1565
1482 1486 1487 1486 1488 1490 1495 1497 1495 1496 1497 1498 1499 1501 1502 1505 1507 1510 1513 1516 1520 1524 1527 1531 1534 1538 1540 1543 1545 1547 1549 1551 1553 1554 1556 1557 1558 1559 1560 1561 1562 1563 1563 1564 1564 1564 1564 1564 1563
1483 1486 1487 1488 1488 1490 1495 1497 1496 1497 1497 1498 1499 1501 1503 1505 1507 1509 1512 1515 1518 1521 1524 1528 1531 1534 1538 1540 1543 1545 1547 1549 1551 1552 1554 1555 1557 1558 1559 1560 1560 1561 1561 1562 1562 1562 1561 1561 1560
1481 1484 1487 1488 1488 1492 1495 1497 1496 1496 1498 1499 1500 1501 1503 1504 1506 1508 1510 1513 1516 1519 1522 1525 1528 1531 1535 1538 1540 1542 1544 1546 1548 1550 1552 1553 1555 1556 1557 1557 1558 1559 1559 1559 1559 1559 1558 1557 1557
1478 1483 1486 1488 1489 1492 1495 1496 1496 1497 1498 1499 1500 1501 1502 1503 1505 1507 1509 1512 1514 1516 1519 1522 1525 1528 1531 1533 1536 1538 1540 1543 1545 1547 1549 1551 1552 1553 1554 1555 1555 1556 1556 1556 1556 1555 1555 1554 1553
1479 1483 1486 1489 1490 1493 1496 1497 1496 1496 1497 1498 1498 1499 1500 1501 1503 1505 1507 1509 1511 1514 1516 1519 1522 1524 1527 1530 1532 1535 1538 1540 1543 1545 1546 1548 1549 1550 1551 1552 1553 1553 1553 1552 1552 1551 1550 1550 1549
1481 1483 1484 1487 1491 1494 1498 1501 1498 1495 1495 1495 1495 1496 1498 1499 1500 1502 1505 1507 1509 1511 1514 1516 1519 1522 1524 1527 1530 1532 1535 1537 1539 1541 1543 1545 1546 1547 1548 1549 1549 1549 1549 1548 1548 1547 1546 1545 1545
1481 1481 1482 1485 1492 1497 1499 1503 1497 1494 1493 1492 1492 1492 1494 1496 1497 1500 1502 1504 1506 1509 1511 1514 1516 1519 1521 1523 1526 1528 1530 1533 1535 1538 1540 1542 1543 1544 1545 1545 1545 1545 1545 1544 1543 1542 1541 1540 1539
1480 1480 1483 1487 1492 1498 1499 1504 1497 1492 1492 1489 1487 1487 1489 1492 1494 1496 1499 1502 1504 1507 1509 1511 1514 1516 1518 1520 1523 1525 1528 1530 1532 1535 1536 1538 1539 1540 1541 1541 1541 1541 1540 1540 1539 1537 1536 1535 1534
1479 1483 1487 1491 1495 1502 1499 1503 1498 1491 1486 1483 1483 1484 1486 1488 1491 1494 1497 1500 1502 1504 1507 1509 1511 1513 1515 1517 1519 1522 1524 1527 1529 1530 1532 1534 1535 1536 1537 1537 1537 1536 1536 1535 1534 1532 1531 1530 1529
1481 1488 1496 1499 1503 1502 1496 1499 1494 1482 1479 1479 1479 1481 1483 1485 1488 1491 1494 1496 1499 1502 1504 1506 1508 1510 1512 1514 1516 1518 1520 1523 1525 1527 1529 1530 1531 1532 1533 1533 1532 1532 1530 1529 1528 1527 1526 1525 1524
1483 1487 1495 1500 1503 1504 1497 1498 1489 1480 1478 1478 1478 1480 1482 1484 1486 1489 1492 1494 1497 1500 1502 1504 1505 1507 1509 1511 1512 1514 1517 1519 1521 1524 1525 1527 1528 1529 1529 1528 1528 1527 1525 1524 1523 1522 1521 1520 1519
1483 1488 1487 1495 1499 1503 1500 1492 1486 1481 1481 1480 1480 1481 1482 1484 1486 1488 1491 1493 1496 1498 1500 1502 1503 1504 1506 1508 1509 1511 1514 1516 1518 1520 1522 1523 1524 1524 1524 1523 1522 1521 1520 1519 1518 1517 1516 1515 1514
1483 1485 1491 1496 1501 1503 1499 1496 1495 1487 1485 1484 1483 1483 1484 1485 1487 1488 1490 1492 1495 1497 1498 1499 1500 1502 1503 1505 1506 1509 1511 1512 1514 1516 1518 1519 1519 1519 1519 1518 1517 1516 1515 1514 1512 1512 1511 1510 1510
1486 1486 1490 1497 1499 1504 1505 1503 1489 1488 1486 1486 1485 1485 1486 1487 1488 1489 1490 1492 1494 1495 1496 1497 1497 1499 1500 1501 1503 1505 1507 1508 1510 1512 1514 1514 1515 1514 1514 1513 1512 1511 1510 1508 1507 1507 1506 1506 1505
1486 1486 1490 1498 1502 1506 1508 1505 1488 1487 1487 1487 1487 1488 1488 1489 1489 1490 1491 1492 1493 1493 1494 1494 1494 1495 1497 1498 1499 1501 1503 1504 1506 1508 1510 1510 1510 1510 1509 1508 1507 1505 1504 1503 1503 1502 1502 1501 1501